sat.trackr.live / text

‹ back to catalog

STARLINK-4200

NORAD 52876 · 2022-062AY

PAYLOAD ACTIVE UNKNOWN

§ Identity

Operator
Country
US
Launch date
2022-06-17
Launch site
AFETR
Launch vehicle
Mass (kg)
RCS (m²)

Purposes: comms

External: N2YO · Heavens-Above · Gunter

§ Orbital elements

Epoch: 2026-09-20T02:39:07.494624Z

Period
94.01 min
Inclination
53.1588°
Eccentricity
0.0001238
Mean motion
15.31703687 rev/d
Perigee alt
469.9 km
Apogee alt
471.6 km
Semi-major
6,848.9 km
B*
4.1698e-5
RAAN
206.6865°
Arg perigee
93.2507°
Mean anomaly
266.8636°
Rev number
23,561

§ Raw data

STARLINK-42001 52876U 22062AY  26263.11050341  .00000929  00000+0  41698-4 0  99952 52876  53.1588 206.6865 0001238  93.2507 266.8636 15.31703687235618

JSON: /api/v1/satellites/52876 · /tle

For live sub-satellite position, see the globe view (requires WebGL).

§ Visibility from observer

Set your observer location to see the next 7 days of passes ≥ 10°. The values pass through the URL so the page stays shareable.

No JS? Fill the form by hand. The geolocation button needs JavaScript.